FW6138 Weather Reports


Display with metric or nautical units.
time (UTC)temp
F
wind
direction
speed
MPH
gust
MPH
rain 1hr
in
rain 24hr
in
rain mn
in
humidity
%
barometer
mb
20260505050148 66 197 2.0 5.0 0.00 0.00 0.00 62 1011.8
20260505034533 64 224 2.0 5.0 0.00 0.00 0.00 66 1010.8
20260505033037 66 231 2.0 4.0 0.00 0.00 0.00 62 1010.5
20260505031528 68 239 1.0 4.0 0.00 0.00 0.00 58 1010.2
20260505030031 71 267 2.0 7.0 0.00 0.00 0.00 54 1009.9
20260505024530 73 282 2.0 6.0 0.00 0.00 0.00 51 1009.8
20260505021529 75 299 4.0 11.0 0.00 0.00 0.00 49 1009.7
20260505013030 76 296 7.0 19.0 0.00 0.00 0.00 48 1009.5
20260505011531 76 293 7.0 15.0 0.00 0.00 0.00 48 1009.5
20260505010039 77 292 7.0 15.0 0.00 0.00 0.00 48 1009.5
20260505004534 77 294 8.0 17.0 0.00 0.00 0.00 47 1009.5
20260505003037 78 302 8.0 18.0 0.00 0.00 0.00 47 1009.3
20260505001531 78 302 8.0 17.0 0.00 0.00 0.00 46 1009.3
20260504234616 79 298 6.0 11.0 0.00 0.00 0.00 45 1009.2
20260504233030 79 303 7.0 16.0 0.00 0.00 0.00 45 1009.2
20260504231531 79 284 8.0 16.0 0.00 0.00 0.00 45 1009.2
20260504230036 79 283 7.0 16.0 0.00 0.00 0.00 45 1009.2
20260504224530 79 295 7.0 16.0 0.00 0.00 0.00 46 1009.4
20260504221530 79 298 7.0 14.0 0.00 0.00 0.00 44 1009.6
20260504220032 80 295 6.0 14.0 0.00 0.00 0.00 43 1009.8
20260504214531 80 297 6.0 14.0 0.00 0.00 0.00 44 1009.9
20260504213036 80 307 5.0 12.0 0.00 0.00 0.00 44 1010.0
20260504211531 80 322 6.0 13.0 0.00 0.00 0.00 44 1010.2
20260504210031 79 338 5.0 16.0 0.00 0.00 0.00 44 1010.4
20260504204536 79 320 6.0 13.0 0.00 0.00 0.00 44 1010.6
20260504203151 79 336 4.0 10.0 0.00 0.00 0.00 45 1010.7
20260504200032 78 351 4.0 10.0 0.00 0.00 0.00 47 1010.9
20260504194530 77 336 4.0 9.0 0.00 0.00 0.00 48 1011.0
20260504190031 76 354 4.0 10.0 0.00 0.00 0.00 49 1011.2
20260504184531 76 325 3.0 9.0 0.00 0.00 0.00 50 1011.3
20260504181530 74 16 1.0 5.0 0.00 0.00 0.00 53 1011.5
20260504174530 73 154 0.0 4.0 0.00 0.00 0.00 55 1011.7
20260504173030 72 42 1.0 5.0 0.00 0.00 0.00 55 1011.7
20260504140107 47 162 0.0 0.0 0.00 0.00 0.00 94 1012.3
20260504110106 48 180 1.0 3.0 0.00 0.00 0.00 90 1011.4
20260504081530 51 157 0.0 2.0 0.00 0.00 0.00 87 1011.5